User: anonymous   Login
Location: Kershaw
(34.5481°N, 80.5823°W)
Time: 21:09:46
(UTC+00:00)
Language:

Explorer 11/Cluster Stage 4 - Orbit

View from above orbital plane
View from above orbital plane
View from above satellite
View from above satellite

Ground track
Ground track

The orbit data is extracted from the following two-line orbital elements,

1 00107U 61013A   22273.31471714  .00002317  00000-0  28912-3 0  9991
2 00107  28.7873 142.9875 0540669 181.1884 178.7403 14.10466562 84111
Epoch (UTC): 30 September 2022 07:33:11
Eccentricity: 0.0540669
inclination: 28.7873°
perigee height: 466 km
apogee height: 1249 km
right ascension of ascending node: 142.9875°
argument of perigee: 181.1884°
revolutions per day: 14.10466562
mean anomaly at epoch: 178.7403°
orbit number at epoch: 8411

The dashed part of the orbit path shows where the satellite is in the earth's shadow,  

DLR